When you browse on this site, cookies collect data to enhance your experience and personalize the content and advertising you see.
Visit our Privacy Policy to learn more. By continuing to use the site, you agree to this use of cookies and data.
  • In Hungary
  • List of Countries
  • For 7 days
  • Water Temperature
  • Satellite Maps
  • Weather Map
  • News
  • Weather Widgets
  • user-avatar
    Login

    Hourly Weather Bad Harzburg

    Today, 17 February, Sunday

    Time Temperature Precipitation Wind Pressure Humidity
    00:00 +5°C° 0 mm 2 mps 741 mmHg 83%
    01:00 +5°C° 0 mm 2 mps 741 mmHg 82%
    02:00 +5°C° 0 mm 2 mps 741 mmHg 81%
    03:00 +5°C° 0 mm 2 mps 741 mmHg 80%
    04:00 +4°C° 0 mm 2 mps 741 mmHg 79%
    05:00 +4°C° 0 mm 2 mps 740 mmHg 78%
    06:00 +4°C° 0 mm 2 mps 740 mmHg 76%
    07:00 +4°C° 0 mm 2 mps 740 mmHg 75%
    08:00 +5°C° 0 mm 2 mps 740 mmHg 71%
    09:00 +7°C° 0 mm 2 mps 740 mmHg 66%
    10:00 +8°C° 0 mm 2 mps 740 mmHg 62%
    11:00 +10°C° 0 mm 2 mps 740 mmHg 58%
    12:00 +12°C° 0 mm 2 mps 740 mmHg 54%
    13:00 +12°C° 0 mm 3 mps 739 mmHg 49%
    14:00 +12°C° 0 mm 3 mps 739 mmHg 52%
    15:00 +13°C° 0 mm 2 mps 739 mmHg 54%
    16:00 +13°C° 0 mm 2 mps 739 mmHg 56%
    17:00 +10°C° 0 mm 2 mps 738 mmHg 62%
    18:00 +8°C° 0 mm 2 mps 738 mmHg 67%
    19:00 +7°C° 0 mm 2 mps 738 mmHg 73%
    20:00 +5°C° 0 mm 3 mps 738 mmHg 73%
    21:00 +5°C° 0 mm 3 mps 738 mmHg 73%
    22:00 +4°C° 0 mm 3 mps 738 mmHg 73%
    23:00 +4°C° 0 mm 3 mps 738 mmHg 73%

    Tomorrow, 18 February, Monday

    Time Temperature Precipitation Wind Pressure Humidity
    00:00 +4°C° 0 mm 3 mps 738 mmHg 73%
    01:00 +4°C° 0 mm 3 mps 738 mmHg 73%
    02:00 +3°C° 0 mm 3 mps 738 mmHg 73%
    03:00 +4°C° 0 mm 2 mps 738 mmHg 73%
    04:00 +4°C° 0 mm 2 mps 738 mmHg 74%
    05:00 +4°C° 0 mm 2 mps 737 mmHg 74%
    06:00 +3°C° 0 mm 2 mps 737 mmHg 75%
    07:00 +3°C° 0 mm 2 mps 737 mmHg 75%
    08:00 +5°C° 0 mm 2 mps 737 mmHg 71%
    09:00 +6°C° 0 mm 2 mps 737 mmHg 67%
    10:00 +7°C° 0 mm 2 mps 737 mmHg 63%
    11:00 +9°C° 0 mm 2 mps 737 mmHg 59%
    12:00 +10°C° 0 mm 2 mps 737 mmHg 56%
    13:00 +13°C° 0 mm 2 mps 737 mmHg 52%
    14:00 +13°C° 0 mm 2 mps 737 mmHg 55%
    15:00 +12°C° 0 mm 2 mps 736 mmHg 57%
    16:00 +12°C° 0 mm 2 mps 736 mmHg 59%
    17:00 +10°C° 0 mm 2 mps 736 mmHg 66%
    18:00 +8°C° 0 mm 2 mps 736 mmHg 73%
    19:00 +5°C° 0 mm 3 mps 736 mmHg 80%
    20:00 +5°C° 0 mm 3 mps 736 mmHg 77%
    21:00 +5°C° 0 mm 3 mps 736 mmHg 75%
    22:00 +4°C° 0 mm 3 mps 736 mmHg 73%
    23:00 +4°C° 0 mm 3 mps 736 mmHg 75%

    Day after tomorrow, 19 February, Tuesday

    Time Temperature Precipitation Wind Pressure Humidity
    00:00 +4°C° 0 mm 3 mps 735 mmHg 76%
    01:00 +4°C° 0 mm 3 mps 735 mmHg 78%
    02:00 +3°C° 0 mm 3 mps 735 mmHg 80%
    03:00 +3°C° 0 mm 3 mps 735 mmHg 82%
    04:00 +3°C° 0 mm 3 mps 735 mmHg 84%
    05:00 +2°C° 0 mm 3 mps 735 mmHg 85%
    06:00 +2°C° 0 mm 3 mps 735 mmHg 85%
    07:00 +2°C° 0 mm 3 mps 735 mmHg 86%
    08:00 +3°C° 0.1 mm 3 mps 735 mmHg 86%
    09:00 +4°C° 0.1 mm 4 mps 735 mmHg 85%
    10:00 +4°C° 0.1 mm 4 mps 736 mmHg 85%
    11:00 +5°C° 0.2 mm 4 mps 736 mmHg 84%
    12:00 +5°C° 0.2 mm 4 mps 736 mmHg 84%
    13:00 +6°C° 0.2 mm 4 mps 736 mmHg 83%
    14:00 +6°C° 0 mm 4 mps 736 mmHg 82%
    15:00 +6°C° 0 mm 4 mps 736 mmHg 80%
    16:00 +6°C° 0 mm 4 mps 736 mmHg 79%
    17:00 +5°C° 0 mm 4 mps 737 mmHg 81%
    18:00 +4°C° 0 mm 4 mps 737 mmHg 83%
    19:00 +4°C° 0 mm 4 mps 737 mmHg 86%
    20:00 +3°C° 0 mm 4 mps 737 mmHg 86%
    21:00 +3°C° 0 mm 3 mps 738 mmHg 87%
    22:00 +2°C° 0 mm 3 mps 738 mmHg 87%
    23:00 +2°C° 0 mm 3 mps 738 mmHg 89%

    20 February, Wednesday

    Time Temperature Precipitation Wind Pressure Humidity
    00:00 +2°C° 0 mm 3 mps 738 mmHg 90%
    01:00 +1°C° 0 mm 3 mps 738 mmHg 91%
    02:00 +1°C° 0 mm 3 mps 738 mmHg 92%
    03:00 +1°C° 0 mm 3 mps 738 mmHg 93%
    04:00 +1°C° 0 mm 3 mps 738 mmHg 93%
    05:00 +1°C° 0 mm 3 mps 738 mmHg 93%
    06:00 0°C° 0 mm 3 mps 739 mmHg 93%
    07:00 0°C° 0 mm 3 mps 739 mmHg 92%
    08:00 +1°C° 0 mm 3 mps 739 mmHg 88%
    09:00 +3°C° 0 mm 3 mps 740 mmHg 83%
    10:00 +4°C° 0 mm 3 mps 740 mmHg 79%
    11:00 +5°C° 0 mm 4 mps 740 mmHg 74%
    12:00 +6°C° 0 mm 4 mps 740 mmHg 70%
    13:00 +7°C° 0 mm 4 mps 740 mmHg 66%
    14:00 +8°C° 0 mm 3 mps 740 mmHg 65%
    15:00 +8°C° 0 mm 3 mps 740 mmHg 64%
    16:00 +8°C° 0 mm 3 mps 740 mmHg 63%
    17:00 +7°C° 0 mm 3 mps 740 mmHg 68%
    18:00 +6°C° 0 mm 2 mps 741 mmHg 74%
    19:00 +4°C° 0 mm 2 mps 741 mmHg 79%
    20:00 +4°C° 0 mm 2 mps 741 mmHg 81%
    21:00 +4°C° 0 mm 2 mps 741 mmHg 82%
    22:00 +4°C° 0 mm 2 mps 741 mmHg 83%
    23:00 +3°C° 0 mm 2 mps 741 mmHg 84%

    21 February, Thursday

    Time Temperature Precipitation Wind Pressure Humidity
    00:00 +3°C° 0 mm 2 mps 741 mmHg 86%
    01:00 +3°C° 0 mm 2 mps 741 mmHg 87%
    02:00 +3°C° 0 mm 3 mps 741 mmHg 87%
    03:00 +3°C° 0 mm 3 mps 741 mmHg 86%
    04:00 +3°C° 0 mm 3 mps 741 mmHg 86%
    05:00 +3°C° 0 mm 3 mps 741 mmHg 88%
    06:00 +2°C° 0 mm 3 mps 741 mmHg 89%
    07:00 +2°C° 0 mm 3 mps 741 mmHg 91%
    08:00 +3°C° 0 mm 4 mps 741 mmHg 88%
    09:00 +4°C° 0 mm 4 mps 741 mmHg 86%
    10:00 +5°C° 0 mm 4 mps 742 mmHg 84%
    11:00 +6°C° 0.1 mm 4 mps 742 mmHg 83%
    12:00 +7°C° 0.1 mm 5 mps 742 mmHg 82%
    13:00 +7°C° 0.1 mm 5 mps 742 mmHg 81%
    14:00 +7°C° 0.2 mm 4 mps 742 mmHg 84%
    15:00 +7°C° 0.2 mm 4 mps 742 mmHg 87%
    16:00 +6°C° 0.2 mm 4 mps 742 mmHg 90%
    17:00 +6°C° 0.1 mm 4 mps 742 mmHg 92%
    18:00 +7°C° 0.1 mm 3 mps 742 mmHg 94%
    19:00 +5°C° 0.1 mm 3 mps 742 mmHg 95%
    20:00 +5°C° 0 mm 3 mps 743 mmHg 95%
    21:00 +5°C° 0 mm 3 mps 743 mmHg 96%
    22:00 +5°C° 0 mm 3 mps 743 mmHg 96%
    23:00 +5°C° 0 mm 3 mps 743 mmHg 96%

    22 February, Friday

    Time Temperature Precipitation Wind Pressure Humidity
    00:00 +5°C° 0 mm 3 mps 744 mmHg 96%
    01:00 +5°C° 0 mm 3 mps 744 mmHg 96%
    02:00 +5°C° 0 mm 3 mps 744 mmHg 96%
    03:00 +6°C° 0 mm 4 mps 744 mmHg 96%
    04:00 +6°C° 0 mm 4 mps 744 mmHg 96%
    05:00 +6°C° 0.1 mm 4 mps 744 mmHg 96%
    06:00 +6°C° 0.1 mm 4 mps 744 mmHg 95%
    07:00 +6°C° 0.1 mm 5 mps 744 mmHg 94%
    08:00 +6°C° 0 mm 5 mps 744 mmHg 93%
    09:00 +6°C° 0 mm 5 mps 745 mmHg 92%
    10:00 +7°C° 0 mm 5 mps 745 mmHg 90%
    11:00 +6°C° 0.1 mm 5 mps 745 mmHg 89%
    12:00 +6°C° 0.1 mm 4 mps 746 mmHg 88%
    13:00 +6°C° 0.1 mm 4 mps 746 mmHg 87%
    14:00 +6°C° 0 mm 4 mps 746 mmHg 85%
    15:00 +7°C° 0 mm 3 mps 746 mmHg 82%
    16:00 +7°C° 0 mm 3 mps 747 mmHg 80%
    17:00 +5°C° 0 mm 3 mps 747 mmHg 82%
    18:00 +6°C° 0 mm 2 mps 748 mmHg 85%
    19:00 +5°C° 0 mm 2 mps 748 mmHg 88%
    20:00 +4°C° 0 mm 2 mps 749 mmHg 90%
    21:00 +3°C° 0 mm 2 mps 749 mmHg 91%
    22:00 +3°C° 0 mm 2 mps 749 mmHg 93%
    23:00 +2°C° 0 mm 2 mps 750 mmHg 94%
    Show more